Location: G�ppingen
(48.7089°N, 9.6563°E)
Time: 04:06:59
(UTC+02:00)

M-CUBED/EXP-1 PRIME - Pass Details

Date: 27 March 2019
Orbit: 430 x 671 km, 101.7° (Epoch: 20 April)

Event Time Altitude Azimuth Distance (km) Brightness Sun altitude
Rises 05:33:05 0° 108° (ESE) 2,635 ? -7.0°
Reaches altitude 10° 05:35:56 10° 83° (E) 1,805 ? -6.5°
Maximum altitude 05:37:59 14° 51° (NE) 1,600 ? -6.2°
Drops below altitude 10° 05:40:07 10° 19° (NNE) 1,889 ? -5.8°
Sets 05:43:13 0° 355° (N) 2,851 ? -5.3°
